Regional Weather Roundup
Issued by NWS Sterling, VA

Home | Current Version | Previous Version | Graphics & Text | Print | Product List | Glossary On
Versions: 1 2 3 4 5 6 7 8 9 10 11 12 13 14 15 16 17 18 19 20 21 22 23 24 25 26 27 28 29 30 31 32 33 34 35 36 37 38 39 40 41 42 43 44 45 46 47 48 49 50
000
ASUS41 KLWX 050810
RWRLWX

REGIONAL WEATHER ROUNDUP
NATIONAL WEATHER SERVICE BALTIMORE MD/WASHINGTON DC
300 AM EST FRI FEB 05 2016

Note: "FAIR" indicates few or no clouds below 12,000 feet
with no significant weather and/or obstructions to visibility.
 TC=TEMPERATURE CELSIUS

 * =Non NWS site. Station does not report precipitation (e.g. rain,
    snow, etc.), thunder, or fog.

DCZ001-MDZ009-015-VAZ040>042-051-053>054-050900-
WASHINGTON METRO

CITY           SKY/WX    TMP DP  RH WIND       PRES   REMARKS
WASHINGTON NAT LGT SNOW  37  32  82 NW15      30.11R FOG     WCI  28
DULLES         FLURRIES  38  26  62 NW16G22   30.10F WCI  29
ANDREWS AFB    LGT RAIN  34  32  93 N12       30.07S WCI  25
FT BELVOIR     LGT RAIN  37  31  78 NW8G18    30.11S
QUANTICO       LGT RAIN  39  30  70 N20G26    30.10S
COLLEGE PARK*  CLOUDY    36  34  93 N6        30.10S
LEESBURG*      CLOUDY    39  30  70 N16       30.11R
MANASSAS*      CLOUDY    36  32  87 N15G26    30.12S WCI  26
GAITHERSBURG*  CLOUDY    36  25  64 NW8       30.12F

$$

MDZ006>007-011-014-050900-
BALTIMORE METRO

CITY           SKY/WX    TMP DP  RH WIND       PRES   REMARKS
BWI AIRPORT    LGT SNOW  34  32  92 N8        30.09S FOG     WCI  27
MD SCIENCE CTR   N/A     37  32  82 MISG      30.08F
MARTIN STATE   LGT RAIN  36  34  93 NW7       30.10R
ANNAPOLIS      LGT RAIN  36  34  92 NW9       30.10R FOG     WCI  29
FORT MEADE*    MOCLDY    34  32  93 N5        30.12S

$$

MDZ012-015-019>023-050900-
MARYLAND EASTERN SHORE

CITY           SKY/WX    TMP DP  RH WIND       PRES   REMARKS
OCEAN CITY     RAIN      40  38  93 N16       29.95F FOG
SALISBURY      RAIN      39  37  92 N15       30.00R FOG
BAY BRIDGE AP* DRIZZLE   36  34  93 N13G20    30.09F WCI  27
CAMBRIDGE*     CLOUDY    34  32  93 NW14G21   30.04R WCI  24
EASTON*        LGT SNOW  34  34 100 N10       30.09F WCI  26

$$

MDZ017>025-050900-
SOUTHERN MARYLAND

CITY           SKY/WX    TMP DP  RH WIND       PRES   REMARKS
PATUXENT RIVER CLOUDY    35  32  88 N14       30.05F FOG     WCI  26
ST INIGOES     RAIN      37  34  89 N9G21     30.03F FOG
LEONARDTOWN*   CLOUDY    34  32  93 NW3       30.07F

$$

MDZ003>005-050900-
NORTH CENTRAL MARYLAND

CITY           SKY/WX    TMP DP  RH WIND       PRES   REMARKS
FREDERICK*     CLOUDY    37  30  75 N9        30.12F
HAGERSTOWN APT CLOUDY    37  26  64 NW16      30.11F WCI  28
WESTMINSTER*   CLOUDY    37  32  81 NW5       30.07F

$$

MDZ501>502-050900-
WESTERN MARYLAND

CITY           SKY/WX    TMP DP  RH WIND       PRES   REMARKS
OAKLAND*       CLOUDY    21  19  93 NW6       30.08F FOG
CUMBERLAND*    CLOUDY    36  23  60 W9G21     30.22R WCI  29

$$

VAZ025>031-050900-
SHENANDOAH VALLEY

CITY           SKY/WX    TMP DP  RH WIND       PRES   REMARKS
WINCHESTER*    CLOUDY    37  25  60 NW15G24   30.11F WCI  28
FRONT ROYAL*   CLOUDY    36  25  64 NW14G22   30.11S WCI  27
LURAY*         CLOUDY    36  25  64 NW9G16    30.12R WCI  29
NEW MARKET*    CLOUDY    36  22  57 CALM      30.12S
STAUNTON*      CLOUDY    39  26  59 N8        30.12R
WAYNESBORO*    CLOUDY    34  24  65 NW15G22   30.08R WCI  24

$$

WVZ021-048>050-054>055-050900-
EASTERN WEST VIRGINIA PANHANDLE

CITY           SKY/WX    TMP DP  RH WIND       PRES   REMARKS
MARTINSBURG    CLOUDY    37  24  59 NW16G23   30.11F WCI  28
PETERSBURG*    CLOUDY    34  21  58 CALM      30.18S

$$

VAZ036>039-050-050900-
CENTRAL FOOTHILLS

CITY           SKY/WX    TMP DP  RH WIND       PRES   REMARKS
CHARLOTTESVILL CLOUDY    36  30  79 NE8       30.10R
CULPEPER*      MIX PCPN  35  30  81 N7        30.13R
ORANGE*        LGT RAIN  34  32  93 NW5       30.13R
GORDONSVILLE*  CLOUDY    34  32  93 N6        30.10S FOG
WARRENTON*     FLURRIES  36  33  90 NW6       30.11R

$$

VAZ055>057-050900-
NORTH AND CENTRAL PIEDMONT

CITY           SKY/WX    TMP DP  RH WIND       PRES   REMARKS
FREDERICKSBRG* RAIN      37  32  85 NW15G24   30.10R WCI  27
STAFFORD*      LGT SNOW  35  31  87 NW16G24   30.14R WCI  24

$$

NCZ024-NYZ072-PAZ021-071-VAZ022-071-050900-
OTHER REGIONAL OBSERVATIONS

CITY           SKY/WX    TMP DP  RH WIND       PRES   REMARKS
NEW YORK CITY  LGT SNOW  37  30  75 NE9G23    30.07R
PHILADELPHIA   LGT SNOW  38  32  78 N16       30.08R FOG
PITTSBURGH     FLURRIES  28  20  71 NW13      30.22R WCI  17
ROANOKE        CLOUDY    35  21  56 NW14G23   30.14R WCI  26
RICHMOND       LGT RAIN  37  32  82 N22G29    30.05R WCI  26
RALEIGH        CLOUDY    42  39  89 VRB5      30.07R

$$

ANZ530>537-050900-
MARINE OBSERVATIONS

STATION/POSITION TIME  TEMP    WIND        PRES
                       AIR SEA DIR/SP/G
                 (UTC) (F)     (DEG/KT/KT) (MB)
THOMAS PT LIGHT  NOT AVBL
BALT KEY BRIDGE  0700   38     320/ 15/ 17 1018.6F
COVE POINT       0700   36     360/ 23/ 28 1018.8R
LEWISETTA        0700   39 44  360/ 11/ 16 1017.3F
SOLOMONS ISLAND  0700   37 41  330/ 11/ 14   N/A

$$




USA.gov is the U.S. government's official web portal to all federal, state and local government web resources and services.